Precipitable_Water
0.66 0.62 0.64 0.76 0.93 0.90 0.87 0.77 0.71 0.92 1.14 1.12 1.05 1.08 1.13 1.15 1.10 0.90 0.94 1.04 1.14 1.19 1.35 1.46 1.49 1.56 1.60 1.60 1.61 1.58 1.56 1.60 1.64 1.65 1.68 1.74 1.67 1.75 1.77 1.73 1.74 1.63 1.62 1.53
0.62 0.58 0.58 0.51 0.55 0.63 0.74 0.66 0.64 0.75 1.04 1.07 1.03 1.01 1.11 1.21 1.18 1.16 0.92 0.96 1.10 1.20 1.26 1.34 1.44 1.50 1.55 1.60 1.61 1.61 1.60 1.60 1.61 1.64 1.70 1.73 1.69 1.70 1.75 1.80 1.76 1.68 1.63 1.62
0.59 0.63 0.50 0.44 0.56 0.63 0.59 0.55 0.62 0.67 0.93 0.98 0.93 0.85 0.97 1.13 1.27 1.32 1.31 1.07 1.05 1.10 1.15 1.26 1.35 1.43 1.53 1.54 1.62 1.66 1.69 1.71 1.69 1.73 1.78 1.75 1.75 1.71 1.63 1.64 1.64 1.68 1.70 1.66
0.55 0.63 0.51 0.44 0.47 0.49 0.48 0.53 0.63 0.72 0.68 0.57 0.71 0.46 0.59 0.87 0.95 1.13 1.33 1.33 1.11 1.07 1.13 1.24 1.30 1.40 1.46 1.50 1.61 1.70 1.76 1.76 1.80 1.84 1.77 1.71 1.61 1.52 1.62 1.66 1.68 1.65 1.69 1.67
0.51 0.52 0.50 0.43 0.44 0.47 0.43 0.42 0.45 0.58 0.58 0.49 0.50 0.50 0.54 0.65 0.65 0.89 1.12 1.37 1.37 1.33 1.28 1.26 1.32 1.39 1.54 1.61 1.59 1.65 1.72 1.76 1.83 1.86 1.87 1.83 1.73 1.72 1.72 1.69 1.65 1.65 1.64 1.62
0.45 0.45 0.45 0.42 0.45 0.43 0.44 0.38 0.36 0.35 0.33 0.29 0.33 0.33 0.32 0.51 0.65 0.80 1.00 1.18 1.41 1.45 1.46 1.47 1.48 1.52 1.52 1.59 1.61 1.62 1.69 1.76 1.83 1.85 1.85 1.83 1.77 1.74 1.70 1.67 1.60 1.61 1.63 1.65
0.37 0.42 0.45 0.38 0.36 0.39 0.36 0.33 0.30 0.24 0.25 0.24 0.36 0.25 0.40 0.60 0.84 0.93 0.93 1.06 1.30 1.42 1.47 1.49 1.44 1.51 1.58 1.56 1.60 1.64 1.61 1.59 1.65 1.70 1.79 1.85 1.84 1.84 1.76 1.72 1.65 1.63 1.61 1.62
0.17 0.27 0.36 0.41 0.34 0.32 0.32 0.32 0.26 0.18 0.14 0.17 0.42 0.30 0.41 0.79 0.92 0.97 1.05 1.06 1.24 1.33 1.49 1.53 1.51 1.57 1.67 1.69 1.79 1.86 1.88 1.88 2.04 1.91 1.85 1.89 1.91 1.89 1.89 1.92 1.92 1.93 1.92 1.90
0.17 0.19 0.28 0.29 0.31 0.33 0.31 0.27 0.28 0.20 0.21 0.23 0.39 0.46 0.57 0.76 0.85 0.99 1.03 1.10 1.17 1.33 1.46 1.62 1.63 1.61 1.67 1.75 1.81 1.89 2.04 1.92 1.92 1.99 2.07 1.92 2.01 2.13 2.08 1.99 1.98 1.95 2.00 1.98
0.21 0.18 0.26 0.28 0.30 0.30 0.26 0.23 0.15 0.16 0.16 0.18 0.28 0.32 0.36 0.56 0.71 0.88 1.01 1.09 1.20 1.33 1.48 1.66 1.70 1.66 1.73 1.76 1.70 1.70 1.60 1.54 1.44 1.28 1.06 1.02 1.09 1.14 1.20 1.14 1.09 1.11 1.22 1.51
0.23 0.21 0.21 0.26 0.25 0.23 0.22 0.20 0.21 0.19 0.25 0.23 0.22 0.30 0.53 0.59 0.79 0.89 1.05 1.15 1.24 1.36 1.50 1.54 1.64 1.61 1.57 1.56 1.50 1.48 1.45 1.31 1.17 1.03 1.01 0.98 0.96 0.95 0.94 0.89 0.90 0.87 0.91 1.01
0.27 0.24 0.20 0.23 0.29 0.30 0.26 0.24 0.21 0.16 0.16 0.24 0.26 0.26 0.62 0.78 0.93 1.01 1.08 1.15 1.26 1.36 1.43 1.46 1.46 1.49 1.54 1.57 1.61 1.45 1.40 1.28 1.20 1.08 1.07 1.09 1.07 1.01 0.95 0.91 0.89 0.90 0.85 0.84
0.30 0.25 0.22 0.24 0.29 0.34 0.29 0.29 0.27 0.25 0.24 0.19 0.20 0.27 0.59 0.82 0.92 1.02 1.02 1.11 1.17 1.20 1.23 1.26 1.28 1.29 1.27 1.25 1.24 1.23 1.23 1.10 1.06 1.05 1.00 1.00 0.98 0.97 0.92 0.89 0.90 0.90 0.88 0.86
0.33 0.27 0.24 0.20 0.24 0.30 0.27 0.29 0.30 0.27 0.21 0.20 0.21 0.30 0.47 0.69 0.81 0.91 0.94 0.98 1.00 1.00 0.99 0.99 0.97 0.95 0.91 0.91 0.89 0.85 0.85 0.88 0.89 0.87 0.84 0.82 0.82 0.84 0.84 0.84 0.82 0.81 0.83 0.83
0.37 0.28 0.29 0.29 0.30 0.31 0.30 0.29 0.30 0.26 0.25 0.20 0.25 0.30 0.41 0.59 0.73 0.81 0.86 0.83 0.77 0.72 0.70 0.66 0.65 0.66 0.67 0.67 0.67 0.69 0.70 0.71 0.73 0.71 0.69 0.67 0.69 0.73 0.78 0.82 0.85 0.87 0.84 0.82
0.42 0.34 0.36 0.32 0.36 0.35 0.30 0.32 0.32 0.31 0.30 0.30 0.31 0.33 0.51 0.62 0.70 0.71 0.70 0.65 0.64 0.64 0.64 0.62 0.61 0.60 0.60 0.61 0.62 0.63 0.62 0.62 0.64 0.63 0.62 0.64 0.62 0.62 0.62 0.64 0.68 0.71 0.75 0.80
0.39 0.38 0.34 0.29 0.35 0.33 0.26 0.31 0.31 0.33 0.37 0.38 0.31 0.41 0.54 0.57 0.61 0.63 0.64 0.64 0.62 0.61 0.58 0.58 0.60 0.60 0.61 0.62 0.64 0.61 0.62 0.63 0.62 0.61 0.59 0.58 0.57 0.55 0.55 0.55 0.56 0.57 0.61 0.66
0.40 0.39 0.39 0.33 0.36 0.24 0.34 0.43 0.40 0.36 0.38 0.42 0.44 0.50 0.58 0.61 0.66 0.68 0.69 0.63 0.59 0.57 0.56 0.58 0.60 0.61 0.62 0.63 0.63 0.65 0.64 0.62 0.61 0.59 0.59 0.59 0.58 0.56 0.56 0.54 0.52 0.52 0.53 0.53
0.50 0.45 0.38 0.33 0.30 0.34 0.37 0.43 0.42 0.38 0.39 0.51 0.50 0.54 0.59 0.63 0.64 0.62 0.68 0.67 0.62 0.58 0.60 0.61 0.62 0.62 0.64 0.63 0.64 0.60 0.58 0.59 0.59 0.57 0.58 0.60 0.61 0.59 0.59 0.58 0.58 0.58 0.57 0.56
0.51 0.49 0.40 0.37 0.29 0.24 0.35 0.48 0.52 0.50 0.34 0.54 0.57 0.56 0.56 0.59 0.47 0.53 0.66 0.70 0.62 0.62 0.63 0.60 0.58 0.57 0.55 0.55 0.56 0.55 0.55 0.56 0.57 0.60 0.62 0.66 0.67 0.66 0.66 0.66 0.65 0.66 0.66 0.62
0.43 0.44 0.38 0.36 0.33 0.35 0.44 0.53 0.56 0.34 0.34 0.52 0.55 0.55 0.54 0.50 0.53 0.59 0.64 0.57 0.56 0.54 0.50 0.50 0.51 0.51 0.54 0.58 0.59 0.56 0.58 0.59 0.66 0.70 0.71 0.72 0.76 0.75 0.75 0.74 0.73 0.72 0.70 0.68
0.42 0.42 0.39 0.40 0.36 0.32 0.54 0.53 0.42 0.46 0.50 0.50 0.51 0.52 0.51 0.53 0.53 0.54 0.49 0.46 0.45 0.43 0.45 0.49 0.49 0.51 0.55 0.58 0.58 0.57 0.58 0.67 0.73 0.75 0.77 0.81 0.83 0.85 0.85 0.83 0.82 0.81 0.79 0.74
0.45 0.51 0.45 0.44 0.40 0.46 0.49 0.45 0.51 0.51 0.49 0.51 0.54 0.58 0.58 0.53 0.51 0.48 0.46 0.46 0.46 0.46 0.47 0.49 0.49 0.50 0.52 0.58 0.63 0.58 0.62 0.71 0.75 0.78 0.82 0.85 0.89 0.92 0.93 0.89 0.88 0.86 0.88 0.84
0.49 0.51 0.42 0.39 0.41 0.44 0.48 0.53 0.55 0.55 0.55 0.58 0.60 0.59 0.60 0.55 0.55 0.51 0.51 0.48 0.46 0.48 0.48 0.50 0.51 0.50 0.52 0.62 0.66 0.72 0.74 0.82 0.82 0.81 0.85 0.90 0.91 0.91 0.96 0.98 0.96 0.91 0.94 0.87
0.43 0.43 0.39 0.38 0.42 0.43 0.45 0.49 0.53 0.55 0.60 0.60 0.61 0.62 0.59 0.58 0.53 0.53 0.48 0.45 0.43 0.46 0.49 0.51 0.52 0.56 0.60 0.66 0.70 0.76 0.80 0.88 0.88 0.87 0.90 0.89 0.89 0.93 0.94 0.96 0.98 0.99 1.04 1.06
0.42 0.38 0.34 0.31 0.39 0.40 0.43 0.52 0.59 0.58 0.58 0.61 0.60 0.60 0.63 0.59 0.55 0.54 0.47 0.42 0.43 0.46 0.50 0.54 0.59 0.65 0.68 0.73 0.75 0.77 0.78 0.86 0.85 0.84 0.87 0.88 0.88 0.93 0.94 0.94 0.96 1.09 1.13 1.15
Wind_Speed
7 8 8 9 9 6 4 4 3 4 6 8 8 6 9 11 10 10 10 11 11 12 12 12 12 12 11 12 12 13 14 13 12 12 11 11 11 10 10 10 10 9 9 8
9 10 8 8 8 10 9 7 6 4 7 8 8 7 9 11 11 10 11 11 12 12 11 11 11 11 12 12 12 13 13 14 13 12 11 10 10 11 11 12 12 12 11 11
12 9 9 8 8 9 8 9 7 5 8 6 7 6 9 10 10 11 10 11 12 12 12 11 11 11 12 12 13 14 14 14 14 13 12 11 11 11 11 12 13 14 14 14
14 12 11 10 8 8 7 5 8 9 9 7 6 5 5 9 13 13 13 12 13 13 12 10 10 11 11 11 13 14 15 15 14 14 14 13 12 12 12 13 13 15 17 17
13 12 12 12 10 11 8 6 5 7 8 9 7 9 6 6 11 14 16 15 14 13 13 13 12 12 12 12 11 12 14 14 14 14 15 14 14 14 14 14 15 15 16 18
15 14 13 12 10 10 11 8 7 8 9 12 9 11 9 8 10 11 13 17 17 15 13 12 12 13 12 13 13 12 13 13 14 14 15 16 16 15 16 16 16 17 17 18
16 15 14 13 12 11 12 12 11 12 13 14 11 13 10 11 12 15 17 18 19 17 13 12 12 14 15 14 14 14 14 13 13 14 15 16 17 18 18 18 18 18 19 20
18 18 16 14 15 14 13 14 14 14 14 12 12 14 11 11 10 12 13 16 18 17 13 11 10 10 11 12 14 13 14 15 13 14 15 16 17 17 18 18 19 19 21 22
17 15 15 13 15 15 14 15 14 13 13 14 13 13 15 10 9 8 9 13 15 17 14 11 11 10 10 9 10 12 12 13 13 12 12 14 15 15 16 17 18 19 21 23
16 16 15 15 15 10 14 12 12 12 13 16 13 14 14 12 11 10 10 12 13 15 15 14 13 11 13 11 10 10 10 10 10 10 11 11 13 13 14 15 17 19 20 21
15 15 14 16 14 15 13 13 11 11 14 14 14 14 14 13 12 12 11 11 12 14 15 14 14 15 14 13 12 11 11 11 11 12 13 14 15 16 17 18 20 21 22 23
14 12 12 12 12 12 13 12 13 14 14 14 14 13 13 12 11 10 9 9 9 10 11 12 13 14 14 16 16 15 14 14 14 16 19 21 22 23 25 26 27 27 28 28
15 11 11 12 13 13 12 11 12 12 12 14 14 13 13 13 12 11 10 9 9 9 9 10 10 11 12 13 14 17 19 22 24 25 26 28 29 30 31 32 33 34 34 34
11 10 12 14 11 11 13 13 13 15 15 13 15 13 16 15 14 13 12 11 11 11 11 13 14 16 18 20 21 24 26 28 30 32 34 35 37 38 39 40 41 41 41 41
9 8 8 7 8 10 11 12 14 16 16 17 14 17 17 16 15 14 14 13 13 13 14 16 18 20 22 24 26 28 31 33 36 38 40 42 44 46 47 47 47 48 48 48
9 8 8 7 8 10 10 11 12 13 14 13 14 14 15 15 15 16 15 15 15 16 18 19 21 23 25 28 30 33 35 38 41 44 46 47 49 50 51 52 53 53 53 52
9 9 9 9 10 11 13 13 14 14 15 14 15 15 17 17 17 17 18 18 18 20 21 22 24 26 28 31 34 36 39 42 45 47 49 51 53 54 55 56 56 56 56 56
8 7 8 9 10 13 11 13 14 11 13 15 13 16 18 18 18 18 19 20 21 22 24 25 27 29 31 34 37 40 42 45 47 49 51 52 53 55 56 56 57 57 58 57
6 7 7 8 10 11 10 11 10 11 11 12 12 14 15 16 17 20 21 22 23 24 25 27 29 31 34 36 39 41 43 45 47 49 51 52 54 55 56 57 58 58 59 59
5 6 8 9 10 10 9 11 11 11 11 13 13 14 14 15 19 19 21 23 25 26 27 29 30 32 33 35 37 39 42 44 47 49 51 52 54 56 57 58 59 59 60 60
9 10 10 10 10 11 11 10 10 12 10 13 15 16 17 19 19 20 21 24 25 26 27 28 30 31 33 34 36 39 41 44 46 47 48 50 51 54 55 56 56 57 58 59
9 8 8 8 9 11 10 9 12 12 11 13 15 16 17 17 18 20 22 23 23 24 25 27 29 31 32 34 35 37 39 42 43 44 46 47 49 49 49 50 51 51 51 53
9 10 9 9 8 9 10 10 11 11 12 14 15 16 17 18 19 19 20 21 23 24 26 26 28 29 31 32 34 36 38 40 40 40 40 41 41 40 41 41 40 41 42 44
7 7 7 8 8 8 10 11 12 13 14 15 16 16 17 18 18 19 20 22 23 24 23 24 26 27 29 30 32 34 36 36 35 36 36 38 39 37 38 38 39 39 40 42
6 6 6 8 9 10 12 13 13 14 15 15 16 17 17 18 18 19 21 22 22 21 21 22 23 24 25 27 27 30 32 31 31 32 34 32 34 33 35 36 36 37 39 40
7 6 8 9 8 8 9 11 14 15 16 16 16 16 16 17 18 19 20 20 19 18 18 19 20 20 22 23 25 28 28 26 27 29 29 28 30 30 35 35 33 33 32 29
Wind_Direction
195 198 200 203 210 222 193 204 206 193 179 178 182 165 169 169 176 174 175 174 176 177 177 179 181 182 182 184 185 189 195 201 205 209 213 223 230 231 233 227 229 235 237 238
214 218 218 218 237 230 227 236 239 212 185 195 184 188 181 183 188 183 184 187 186 186 184 187 191 193 196 198 200 201 205 208 211 214 221 227 232 234 235 236 239 242 242 242
224 221 233 230 220 204 217 224 213 207 181 187 190 209 195 205 202 205 203 199 198 198 199 198 198 201 207 210 211 212 212 214 218 222 227 233 237 239 241 242 245 247 247 247
231 231 231 215 204 203 197 220 206 192 196 213 226 217 200 212 212 211 210 209 208 208 207 207 208 208 213 214 217 220 221 220 223 226 231 236 239 244 247 250 253 254 252 252
224 230 224 216 216 219 212 214 210 212 220 224 227 237 227 234 222 223 218 216 215 212 215 217 218 221 223 221 221 221 222 224 226 230 234 240 243 248 253 255 259 259 258 256
228 229 230 225 222 225 206 222 233 237 237 240 240 243 236 249 254 246 235 222 217 216 221 225 230 231 227 228 228 227 222 226 233 237 239 242 248 251 256 258 260 262 261 260
227 224 228 226 224 226 230 229 243 244 239 247 247 238 244 267 260 256 250 230 217 217 221 226 238 231 234 230 228 228 229 232 234 241 247 250 253 257 258 260 261 264 266 266
220 220 226 232 233 230 235 243 245 252 248 245 238 241 243 261 266 258 245 218 211 210 220 229 230 225 228 229 221 232 238 234 244 251 252 255 258 259 261 263 263 266 269 269
219 223 224 232 232 240 237 243 251 244 252 249 244 243 245 254 259 245 218 208 209 212 219 228 221 224 224 230 237 237 240 245 253 256 256 257 265 256 263 266 267 271 273 275
220 220 228 229 236 246 244 229 240 244 237 245 245 248 251 261 254 239 224 222 219 218 223 225 228 229 232 233 247 243 242 241 246 255 261 263 265 272 271 271 274 278 281 281
217 227 224 230 243 235 236 238 245 241 251 249 247 248 256 253 243 236 234 232 226 225 225 230 233 237 235 238 248 242 248 256 257 262 268 268 271 276 277 278 279 282 283 284
220 223 222 223 233 236 237 238 238 247 243 253 259 251 251 242 232 221 219 218 210 211 218 227 237 236 245 250 246 248 257 257 264 274 277 275 276 278 278 278 279 281 282 283
209 222 211 223 231 235 239 241 243 244 247 242 248 248 237 227 222 219 207 206 207 210 216 224 232 241 249 256 258 266 265 272 274 277 279 278 279 279 278 279 279 279 280 280
212 222 233 235 239 238 237 245 246 248 249 244 250 232 227 222 218 218 219 221 224 230 240 248 254 260 264 269 271 272 274 276 277 279 279 279 280 280 279 278 278 279 278 277
221 223 231 232 236 242 251 258 255 249 252 251 243 228 222 221 218 221 226 231 238 247 255 262 265 269 271 274 277 278 279 280 281 281 282 281 281 281 280 279 278 277 277 276
228 222 227 238 252 251 260 262 253 252 245 252 230 227 228 224 224 228 235 242 251 259 266 270 273 276 278 281 283 284 285 285 286 285 284 284 283 282 281 280 279 277 276 275
230 222 241 247 266 261 261 270 260 250 248 238 236 238 220 224 230 236 243 252 261 267 271 275 278 281 283 285 287 288 288 288 288 288 287 286 285 283 282 280 279 277 276 275
212 232 257 261 266 261 278 270 254 249 251 246 242 228 227 233 240 246 252 258 266 270 273 277 281 284 286 288 290 291 291 291 290 289 289 289 287 285 283 281 279 277 275 274
238 245 261 260 265 277 266 249 247 257 253 247 234 232 235 242 248 254 256 262 269 272 276 280 283 285 287 290 292 294 294 294 293 292 291 290 288 287 285 283 280 278 276 274
258 264 266 264 266 260 266 239 251 256 258 240 241 237 240 247 257 262 262 267 272 275 279 282 285 287 290 293 296 297 298 298 297 296 295 293 291 288 286 284 282 279 276 273
266 271 269 265 269 271 261 244 248 265 273 242 248 251 252 260 268 268 269 274 276 278 279 281 285 288 292 294 297 299 302 302 301 300 298 296 295 292 290 287 284 280 277 274
260 258 264 265 265 264 243 247 262 275 271 258 255 257 260 266 270 272 274 276 276 279 282 284 287 291 295 297 297 300 303 306 306 304 304 301 300 299 296 290 286 282 278 275
265 268 264 263 272 275 254 269 265 270 275 273 264 266 267 269 273 276 278 279 280 283 285 287 290 294 297 299 301 301 305 308 309 308 307 311 309 307 305 299 294 289 284 279
266 258 266 265 270 271 262 267 276 276 280 279 274 270 270 273 276 279 282 283 285 285 286 289 293 296 299 301 304 305 307 308 310 312 312 314 315 312 313 307 298 294 288 285
267 249 261 276 280 281 273 273 277 279 284 282 278 275 273 276 279 283 285 286 285 285 287 291 295 298 301 307 310 313 314 312 314 318 319 320 324 322 321 319 311 301 296 289
252 260 273 284 272 278 290 294 284 284 285 282 280 277 277 277 282 286 288 287 284 285 287 292 296 299 306 313 318 321 322 320 321 323 328 330 333 330 334 331 328 321 310 298